Weather History for Midland, TX

Change the Weather History Date:

Saturday, April 28, 2012

  Actual Average Record
Temperature  
Mean Temperature 76 °F 68 °F  
Max Temperature 96 °F 83 °F 98 °F (1992)
Min Temperature 56 °F 54 °F 37 °F (2008)
Degree Days  
Heating Degree Days 0 2  
Month to date heating degree days 20 109  
Since 1 July heating degree days 2296 2653  
Cooling Degree Days 11 5  
Month to date cooling degree days 201 79  
Year to date cooling degree days 278 97  
Growing Degree Days 26 (Base 50)    
Moisture  
Dew Point 46 °F    
Average Humidity 31    
Maximum Humidity 52    
Minimum Humidity 10    
Precipitation  
Precipitation 0.00 in 0.02 in 2.00 in (1931)
Month to date precipitation 0.05 0.60  
Year to date precipitation 1.35 2.47  
Snow  
Snow 0.00 in - - ()
Month to date snowfall 0.0  
Since 1 July snowfall 19.5  
Snow Depth 0.00 in    
Sea Level Pressure  
Sea Level Pressure 29.64 in    
Wind  
Wind Speed 11 mph (SSW)    
Max Wind Speed 26 mph    
Max Gust Speed 33 mph    
Visibility 10 miles    
Events      
T = Trace of Precipitation, MM = Missing Value Source: NWS Daily Summary

Daily Weather History Graph

Daily Weather History Graph

Search for Another Location

Airport:

Trip Planner

Search our weather history database for the weather conditions in past years. The results will help you decide how hot, cold, wet, or windy it might be!

Date:

Astronomy

Apr. 28, 2012 Rise Set
Actual Time 7:05 AM CDT 8:27 PM CDT
Civil Twilight 6:39 AM CDT 8:53 PM CDT
Nautical Twilight 6:08 AM CDT 9:24 PM CDT
Astronomical Twilight 5:36 AM CDT 9:56 PM CDT
Moon 12:48 PM CDT (4/28) 1:51 AM CDT (4/28)
Length of Visible Light 14h 13m
Length of Day
13h 22m
Waxing Crescent, 43% of the Moon is Illuminated
Apr 28
Waxing Crescent
Apr 29
First Quarter
May 5
Full
May 12
Last Quarter
May 20
New

Hourly Weather History & Observations

Time (CDT) Temp. Heat Index Dew Point Humidity Pressure Visibility Wind Dir Wind Speed Gust Speed Precip Events Conditions
12:53 AM 75.0 °F - 48.0 °F 38% 29.64 in 10.0 mi SSW 10.4 mph - N/A   Clear
1:53 AM 73.4 °F - 48.2 °F 41% 29.78 in 10.0 mi SSW 10.4 mph - N/A   Clear
2:53 AM 73.0 °F - 48.0 °F 41% 29.62 in 10.0 mi SSW 11.5 mph - N/A   Clear
3:53 AM 71.1 °F - 46.9 °F 42% 29.61 in 10.0 mi SSW 10.4 mph - N/A   Clear
4:53 AM 70.0 °F - 46.9 °F 44% 29.61 in 10.0 mi SW 8.1 mph - N/A   Clear
5:53 AM 66.2 °F - 46.4 °F 49% 29.78 in 10.0 mi SW 9.2 mph - N/A   Clear
6:53 AM 62.1 °F - 45.0 °F 53% 29.66 in 10.0 mi West 9.2 mph - N/A   Clear
7:53 AM 63.0 °F - 45.0 °F 52% 29.68 in 10.0 mi Calm Calm - N/A   Clear
8:53 AM 73.0 °F - 52.0 °F 48% 29.69 in 10.0 mi WSW 10.4 mph - N/A   Clear
9:53 AM 75.9 °F - 52.0 °F 43% 29.69 in 10.0 mi SW 11.5 mph - N/A   Clear
10:53 AM 80.1 °F - 48.9 °F 34% 29.68 in 10.0 mi SW 5.8 mph - N/A   Clear
11:53 AM 84.0 °F - 46.0 °F 26% 29.67 in 10.0 mi SW 3.5 mph - N/A   Clear
12:53 PM 87.1 °F - 44.1 °F 22% 29.65 in 10.0 mi SSW 4.6 mph - N/A   Clear
1:53 PM 90.0 °F - 34.0 °F 14% 29.63 in 10.0 mi Calm Calm - N/A   Clear
2:53 PM 93.0 °F - 34.0 °F 12% 29.60 in 10.0 mi Variable 4.6 mph - N/A   Clear
3:53 PM 95.0 °F - 30.0 °F 10% 29.58 in 10.0 mi SW 8.1 mph 17.3 mph N/A   Clear
4:53 PM 95.0 °F - 30.0 °F 10% 29.55 in 10.0 mi SW 9.2 mph - N/A   Clear
5:53 PM 93.9 °F - 37.9 °F 14% 29.55 in 10.0 mi SE 8.1 mph 23.0 mph N/A   Clear
6:53 PM 91.0 °F - 46.0 °F 21% 29.57 in 10.0 mi SSE 19.6 mph 24.2 mph N/A   Clear
7:53 PM 86.0 °F - 48.0 °F 27% 29.58 in 10.0 mi SSE 20.7 mph 28.8 mph N/A   Clear
8:53 PM 81.0 °F 80.4 °F 53.1 °F 38% 29.60 in 10.0 mi SSE 18.4 mph 29.9 mph N/A   Clear
9:53 PM 79.0 °F - 55.0 °F 44% 29.62 in 10.0 mi South 24.2 mph 33.4 mph N/A   Clear
10:53 PM 75.9 °F - 55.9 °F 50% 29.65 in 10.0 mi South 19.6 mph - N/A   Clear
11:53 PM 75.0 °F - 55.9 °F 51% 29.64 in 10.0 mi SSE 15.0 mph - N/A   Clear